Time,TemperatureF,DewpointF,PressureIn,WindDirection,WindDirectionDegrees,WindSpeedMPH,WindSpeedGustMPH,Humidity,HourlyPrecipIn,Conditions,Clouds,dailyrainin,SolarRadiationWatts/m^2,SoftwareType,DateUTC
2013-01-28 00:00:00,77.8,72.0,30.11,NE,43,4.0,12.0,82,0.00,,,0.01,0,weatherlink.com 1.10,2013-01-28 04:00:00,
2013-01-28 00:15:00,77.7,71.0,30.11,NE,35,5.0,14.0,81,0.00,,,0.00,0,weatherlink.com 1.10,2013-01-28 04:15:00,
2013-01-28 00:30:00,77.8,72.0,30.11,ENE,76,9.0,13.0,82,0.00,,,0.00,0,weatherlink.com 1.10,2013-01-28 04:30:00,
2013-01-28 00:46:00,77.7,71.0,30.10,East,81,14.0,16.0,81,0.00,,,0.00,0,weatherlink.com 1.10,2013-01-28 04:46:00,
2013-01-28 01:01:00,77.7,71.0,30.10,ESE,107,10.0,14.0,80,0.00,,,0.00,0,weatherlink.com 1.10,2013-01-28 05:01:00,
2013-01-28 01:15:00,77.7,71.0,30.10,ENE,68,4.0,11.0,80,0.00,,,0.00,0,weatherlink.com 1.10,2013-01-28 05:15:00,
2013-01-28 01:30:00,77.6,71.0,30.09,ESE,113,5.0,11.0,80,0.00,,,0.00,0,weatherlink.com 1.10,2013-01-28 05:30:00,
2013-01-28 01:46:00,77.6,71.0,30.09,ENE,67,8.0,12.0,80,0.00,,,0.00,0,weatherlink.com 1.10,2013-01-28 05:46:00,
2013-01-28 02:00:00,77.7,71.0,30.09,ENE,74,7.0,13.0,81,0.00,,,0.00,0,weatherlink.com 1.10,2013-01-28 06:00:00,
2013-01-28 02:15:00,77.4,71.0,30.08,ENE,59,12.0,12.0,80,0.00,,,0.00,0,weatherlink.com 1.10,2013-01-28 06:15:00,
2013-01-28 02:30:00,77.4,71.0,30.08,ENE,63,5.0,13.0,80,0.00,,,0.00,0,weatherlink.com 1.10,2013-01-28 06:30:00,
2013-01-28 02:45:00,77.3,71.0,30.07,NNE,33,5.0,13.0,80,0.00,,,0.00,0,weatherlink.com 1.10,2013-01-28 06:45:00,
2013-01-28 03:00:00,77.3,71.0,30.07,ENE,77,4.0,12.0,80,0.00,,,0.00,0,weatherlink.com 1.10,2013-01-28 07:00:00,
2013-01-28 03:16:00,77.2,70.0,30.07,ENE,57,3.0,12.0,79,0.00,,,0.00,0,weatherlink.com 1.10,2013-01-28 07:16:00,
2013-01-28 03:30:00,77.3,70.0,30.07,ENE,78,4.0,11.0,79,0.00,,,0.00,0,weatherlink.com 1.10,2013-01-28 07:30:00,
2013-01-28 03:46:00,77.3,71.0,30.06,ENE,76,2.0,9.0,81,0.00,,,0.00,0,weatherlink.com 1.10,2013-01-28 07:46:00,
2013-01-28 04:01:00,77.2,71.0,30.06,ENE,59,10.0,11.0,80,0.00,,,0.00,0,weatherlink.com 1.10,2013-01-28 08:01:00,
2013-01-28 04:16:00,77.3,72.0,30.06,ENE,71,7.0,10.0,83,0.00,,,0.00,0,weatherlink.com 1.10,2013-01-28 08:16:00,
2013-01-28 04:31:00,77.3,72.0,30.06,East,90,8.0,8.0,84,0.00,,,0.00,0,weatherlink.com 1.10,2013-01-28 08:31:00,
2013-01-28 04:46:00,77.0,72.0,30.07,East,87,9.0,10.0,84,0.00,,,0.00,0,weatherlink.com 1.10,2013-01-28 08:46:00,
2013-01-28 05:01:00,76.9,71.0,30.07,ENE,67,4.0,10.0,83,0.00,,,0.00,0,weatherlink.com 1.10,2013-01-28 09:01:00,
2013-01-28 05:16:00,77.1,72.0,30.07,ENE,68,7.0,9.0,83,0.00,,,0.00,0,weatherlink.com 1.10,2013-01-28 09:16:00,
2013-01-28 05:31:00,77.3,71.0,30.08,ENE,67,2.0,11.0,81,0.00,,,0.00,0,weatherlink.com 1.10,2013-01-28 09:31:00,
2013-01-28 05:46:00,77.4,71.0,30.08,NE,51,3.0,8.0,81,0.00,,,0.00,0,weatherlink.com 1.10,2013-01-28 09:46:00,
2013-01-28 06:01:00,77.3,70.0,30.09,ENE,72,7.0,13.0,79,0.00,,,0.00,0,weatherlink.com 1.10,2013-01-28 10:01:00,
2013-01-28 06:16:00,77.6,71.0,30.09,ENE,61,3.0,12.0,80,0.00,,,0.00,0,weatherlink.com 1.10,2013-01-28 10:16:00,
2013-01-28 06:31:00,77.6,71.0,30.10,East,98,2.0,16.0,80,0.00,,,0.00,0,weatherlink.com 1.10,2013-01-28 10:31:00,
2013-01-28 06:46:00,77.4,71.0,30.10,NE,53,7.0,13.0,81,0.00,,,0.00,0,weatherlink.com 1.10,2013-01-28 10:46:00,
2013-01-28 07:01:00,77.4,72.0,30.11,ENE,73,8.0,12.0,82,0.00,,,0.00,5,weatherlink.com 1.10,2013-01-28 11:01:00,
2013-01-28 07:16:00,77.5,71.0,30.11,ENE,74,4.0,14.0,80,0.00,,,0.00,16,weatherlink.com 1.10,2013-01-28 11:16:00,
2013-01-28 07:31:00,77.8,72.0,30.12,ENE,66,2.0,15.0,82,0.03,,,0.03,105,weatherlink.com 1.10,2013-01-28 11:31:00,
2013-01-28 07:46:00,76.6,72.0,30.12,ENE,71,5.0,13.0,86,0.06,,,0.06,37,weatherlink.com 1.10,2013-01-28 11:46:00,
2013-01-28 08:01:00,76.6,72.0,30.13,ENE,69,10.0,15.0,85,0.06,,,0.06,58,weatherlink.com 1.10,2013-01-28 12:01:00,
2013-01-28 08:16:00,77.0,72.0,30.13,NE,53,3.0,14.0,83,0.06,,,0.06,95,weatherlink.com 1.10,2013-01-28 12:16:00,
2013-01-28 08:31:00,78.0,72.0,30.14,ENE,77,4.0,12.0,81,0.02,,,0.06,169,weatherlink.com 1.10,2013-01-28 12:31:00,
2013-01-28 08:46:00,78.3,71.0,30.14,ENE,65,4.0,14.0,79,0.00,,,0.06,83,weatherlink.com 1.10,2013-01-28 12:46:00,
2013-01-28 09:01:00,78.7,71.0,30.15,East,92,15.0,18.0,77,0.00,,,0.06,494,weatherlink.com 1.10,2013-01-28 13:01:00,
2013-01-28 09:16:00,80.1,73.0,30.15,ENE,64,9.0,14.0,78,0.01,,,0.07,121,weatherlink.com 1.10,2013-01-28 13:16:00,
2013-01-28 09:31:00,78.5,73.0,30.16,NNE,28,2.0,12.0,82,0.01,,,0.07,62,weatherlink.com 1.10,2013-01-28 13:31:00,
2013-01-28 09:46:00,78.1,73.0,30.16,ENE,69,4.0,12.0,83,0.01,,,0.07,77,weatherlink.com 1.10,2013-01-28 13:46:00,
2013-01-28 10:02:00,75.1,70.0,30.17,NE,44,6.0,21.0,84,0.03,,,0.09,204,weatherlink.com 1.10,2013-01-28 14:02:00,
2013-01-28 10:16:00,76.6,72.0,30.17,ENE,66,2.0,10.0,86,0.02,,,0.09,316,weatherlink.com 1.10,2013-01-28 14:16:00,
2013-01-28 10:31:00,78.7,74.0,30.17,NE,53,4.0,14.0,84,0.02,,,0.09,369,weatherlink.com 1.10,2013-01-28 14:31:00,
2013-01-28 10:46:00,78.7,73.0,30.16,NNE,24,4.0,9.0,82,0.02,,,0.09,160,weatherlink.com 1.10,2013-01-28 14:46:00,
2013-01-28 11:01:00,80.4,75.0,30.16,NNE,12,1.0,11.0,83,0.00,,,0.09,209,weatherlink.com 1.10,2013-01-28 15:01:00,
2013-01-28 11:16:00,80.7,73.0,30.16,ENE,71,7.0,15.0,78,0.00,,,0.09,114,weatherlink.com 1.10,2013-01-28 15:16:00,
2013-01-28 11:31:00,81.3,73.0,30.15,NE,53,9.0,19.0,75,0.00,,,0.09,703,weatherlink.com 1.10,2013-01-28 15:31:00,
2013-01-28 11:47:00,82.5,73.0,30.15,East,84,9.0,17.0,73,0.00,,,0.09,788,weatherlink.com 1.10,2013-01-28 15:47:00,
2013-01-28 12:02:00,83.1,73.0,30.14,ENE,67,14.0,18.0,72,0.00,,,0.09,675,weatherlink.com 1.10,2013-01-28 16:02:00,
2013-01-28 12:17:00,83.4,73.0,30.14,ENE,76,5.0,15.0,71,0.00,,,0.09,550,weatherlink.com 1.10,2013-01-28 16:17:00,
2013-01-28 12:32:00,83.5,72.0,30.13,ENE,63,8.0,18.0,68,0.00,,,0.09,821,weatherlink.com 1.10,2013-01-28 16:32:00,
2013-01-28 12:47:00,84.0,73.0,30.12,ENE,78,11.0,17.0,69,0.00,,,0.09,816,weatherlink.com 1.10,2013-01-28 16:47:00,
2013-01-28 13:02:00,83.8,73.0,30.12,NE,37,3.0,17.0,69,0.00,,,0.09,817,weatherlink.com 1.10,2013-01-28 17:02:00,
2013-01-28 13:17:00,83.7,72.0,30.11,ENE,74,5.0,17.0,68,0.00,,,0.09,796,weatherlink.com 1.10,2013-01-28 17:17:00,
2013-01-28 13:32:00,83.9,72.0,30.10,ENE,66,9.0,17.0,68,0.00,,,0.09,789,weatherlink.com 1.10,2013-01-28 17:32:00,
2013-01-28 13:47:00,84.3,73.0,30.10,ENE,63,14.0,18.0,69,0.00,,,0.09,805,weatherlink.com 1.10,2013-01-28 17:47:00,
2013-01-28 14:02:00,84.5,72.0,30.09,ENE,78,5.0,18.0,67,0.00,,,0.09,765,weatherlink.com 1.10,2013-01-28 18:02:00,
2013-01-28 14:17:00,83.8,72.0,30.09,NE,46,6.0,15.0,68,0.00,,,0.09,731,weatherlink.com 1.10,2013-01-28 18:17:00,
2013-01-28 14:32:00,84.2,72.0,30.09,East,79,9.0,15.0,67,0.00,,,0.09,729,weatherlink.com 1.10,2013-01-28 18:32:00,
2013-01-28 14:49:00,84.4,73.0,30.09,East,79,2.0,15.0,68,0.00,,,0.09,802,weatherlink.com 1.10,2013-01-28 18:49:00,
2013-01-28 15:02:00,83.8,73.0,30.08,East,86,11.0,15.0,69,0.00,,,0.09,650,weatherlink.com 1.10,2013-01-28 19:02:00,
2013-01-28 15:17:00,84.3,73.0,30.08,ESE,105,7.0,15.0,68,0.00,,,0.09,241,weatherlink.com 1.10,2013-01-28 19:17:00,
2013-01-28 15:32:00,83.4,75.0,30.08,East,90,7.0,19.0,75,0.01,,,0.10,137,weatherlink.com 1.10,2013-01-28 19:32:00,
2013-01-28 15:47:00,79.6,71.0,30.07,NE,52,5.0,14.0,76,0.01,,,0.10,529,weatherlink.com 1.10,2013-01-28 19:47:00,
2013-01-28 16:02:00,81.2,73.0,30.07,ENE,64,5.0,10.0,75,0.01,,,0.10,570,weatherlink.com 1.10,2013-01-28 20:02:00,
2013-01-28 16:17:00,81.6,71.0,30.07,ENE,61,8.0,15.0,71,0.01,,,0.10,188,weatherlink.com 1.10,2013-01-28 20:17:00,
2013-01-28 16:32:00,81.5,72.0,30.07,East,94,5.0,16.0,73,0.00,,,0.10,185,weatherlink.com 1.10,2013-01-28 20:32:00,
2013-01-28 16:47:00,81.5,72.0,30.07,ENE,57,10.0,17.0,73,0.00,,,0.10,306,weatherlink.com 1.10,2013-01-28 20:47:00,
2013-01-28 17:02:00,80.3,72.0,30.08,ENE,69,9.0,14.0,75,0.00,,,0.10,74,weatherlink.com 1.10,2013-01-28 21:02:00,
2013-01-28 17:17:00,79.6,71.0,30.08,ENE,73,14.0,15.0,76,0.00,,,0.10,35,weatherlink.com 1.10,2013-01-28 21:17:00,
2013-01-28 17:32:00,79.1,70.0,30.08,East,87,8.0,17.0,74,0.00,,,0.10,30,weatherlink.com 1.10,2013-01-28 21:32:00,
2013-01-28 17:47:00,79.2,71.0,30.09,East,80,6.0,15.0,76,0.00,,,0.10,49,weatherlink.com 1.10,2013-01-28 21:47:00,
2013-01-28 18:02:00,79.1,71.0,30.09,NE,44,9.0,14.0,76,0.00,,,0.10,33,weatherlink.com 1.10,2013-01-28 22:02:00,
2013-01-28 18:17:00,78.0,69.0,30.09,NE,50,8.0,14.0,73,0.00,,,0.10,0,weatherlink.com 1.10,2013-01-28 22:17:00,
2013-01-28 18:32:00,78.4,71.0,30.09,NE,51,8.0,15.0,77,0.00,,,0.10,0,weatherlink.com 1.10,2013-01-28 22:32:00,
2013-01-28 18:47:00,78.6,72.0,30.09,NNW,335,2.0,13.0,79,0.00,,,0.10,0,weatherlink.com 1.10,2013-01-28 22:47:00,
2013-01-28 19:02:00,78.4,72.0,30.09,ENE,62,4.0,12.0,81,0.00,,,0.10,0,weatherlink.com 1.10,2013-01-28 23:02:00,
2013-01-28 19:17:00,77.7,70.0,30.10,ENE,68,5.0,15.0,78,0.00,,,0.10,0,weatherlink.com 1.10,2013-01-28 23:17:00,
2013-01-28 19:32:00,78.1,70.0,30.10,ENE,62,3.0,16.0,77,0.00,,,0.10,0,weatherlink.com 1.10,2013-01-28 23:32:00,
2013-01-28 19:47:00,78.4,72.0,30.11,ENE,72,2.0,14.0,80,0.00,,,0.10,0,weatherlink.com 1.10,2013-01-28 23:47:00,
2013-01-28 20:02:00,77.8,70.0,30.11,ENE,70,8.0,12.0,77,0.00,,,0.10,0,weatherlink.com 1.10,2013-01-29 00:02:00,
2013-01-28 20:17:00,78.1,71.0,30.11,ENE,71,4.0,13.0,78,0.00,,,0.10,0,weatherlink.com 1.10,2013-01-29 00:17:00,
2013-01-28 20:32:00,78.3,71.0,30.11,ENE,67,1.0,13.0,79,0.00,,,0.10,0,weatherlink.com 1.10,2013-01-29 00:32:00,
2013-01-28 20:47:00,77.9,71.0,30.12,ENE,78,8.0,12.0,79,0.00,,,0.10,0,weatherlink.com 1.10,2013-01-29 00:47:00,
2013-01-28 21:02:00,77.9,71.0,30.12,ENE,73,5.0,15.0,79,0.00,,,0.10,0,weatherlink.com 1.10,2013-01-29 01:02:00,
2013-01-28 21:17:00,77.9,71.0,30.12,ENE,59,9.0,13.0,79,0.00,,,0.10,0,weatherlink.com 1.10,2013-01-29 01:17:00,
2013-01-28 21:32:00,77.9,71.0,30.12,ENE,69,4.0,17.0,79,0.00,,,0.10,0,weatherlink.com 1.10,2013-01-29 01:32:00,
2013-01-28 21:47:00,77.8,70.0,30.12,NE,51,5.0,15.0,77,0.00,,,0.10,0,weatherlink.com 1.10,2013-01-29 01:47:00,
2013-01-28 22:02:00,77.8,70.0,30.12,ENE,75,5.0,13.0,77,0.00,,,0.10,0,weatherlink.com 1.10,2013-01-29 02:02:00,
2013-01-28 22:17:00,78.0,71.0,30.12,ENE,58,7.0,12.0,79,0.00,,,0.10,0,weatherlink.com 1.10,2013-01-29 02:17:00,
2013-01-28 22:32:00,77.7,71.0,30.12,ENE,59,9.0,16.0,79,0.00,,,0.10,0,weatherlink.com 1.10,2013-01-29 02:32:00,
2013-01-28 22:47:00,77.8,70.0,30.12,East,86,7.0,15.0,78,0.00,,,0.10,0,weatherlink.com 1.10,2013-01-29 02:47:00,
2013-01-28 23:04:00,77.9,71.0,30.12,East,89,13.0,14.0,78,0.00,,,0.10,0,weatherlink.com 1.10,2013-01-29 03:04:00,
2013-01-28 23:17:00,77.7,70.0,30.11,ENE,71,12.0,17.0,77,0.00,,,0.10,0,weatherlink.com 1.10,2013-01-29 03:17:00,
2013-01-28 23:32:00,77.5,69.0,30.11,NE,41,9.0,15.0,74,0.00,,,0.10,0,weatherlink.com 1.10,2013-01-29 03:32:00,
2013-01-28 23:47:00,77.9,71.0,30.11,East,94,13.0,15.0,79,0.00,,,0.10,0,weatherlink.com 1.10,2013-01-29 03:47:00,